�������l�o���
Date,Time,MP-1(��Sv/h),MP-2(��Sv/h),MP-3(��Sv/h),MP-4(��Sv/h),MP-5(��Sv/h),MP-6(��Sv/h),MP-7(��Sv/h),MP-8(��Sv/h),����,����(m/s),���J
2017/02/01,00:00,1.067,1.806,1.175,2.043,1.422,0.558,1.023,0.949,���k��,5.5,��
2017/02/01,00:10,1.068,1.808,1.174,2.046,1.423,0.557,1.022,0.950,���k��,5.7,��
2017/02/01,00:20,1.067,1.809,1.173,2.046,1.422,0.557,1.025,0.949,���k��,5.6,��
2017/02/01,00:30,1.068,1.809,1.171,2.046,1.422,0.557,1.022,0.952,�k��,5.2,��
2017/02/01,00:40,1.067,1.809,1.171,2.045,1.420,0.559,1.025,0.950,�k��,5.7,��
2017/02/01,00:50,1.066,1.808,1.171,2.041,1.419,0.557,1.023,0.949,�k��,4.8,��
2017/02/01,01:00,1.066,1.808,1.174,2.045,1.418,0.558,1.021,0.949,�k��,4.8,��
2017/02/01,01:10,1.068,1.806,1.169,2.043,1.420,0.557,1.022,0.949,�k��,4.9,��
2017/02/01,01:20,1.066,1.806,1.172,2.042,1.418,0.557,1.021,0.950,���k��,4.8,��
2017/02/01,01:30,1.066,1.808,1.172,2.045,1.420,0.557,1.021,0.949,�k��,4.7,��
2017/02/01,01:40,1.067,1.809,1.172,2.047,1.420,0.557,1.021,0.947,�k��,5.2,��
2017/02/01,01:50,1.066,1.809,1.173,2.047,1.416,0.555,1.021,0.950,���k��,5.5,��
2017/02/01,02:00,1.068,1.807,1.174,2.045,1.421,0.556,1.022,0.949,�k��,3.9,��
2017/02/01,02:10,1.068,1.807,1.172,2.046,1.417,0.556,1.022,0.949,���k��,2.6,��
2017/02/01,02:20,1.067,1.808,1.172,2.045,1.417,0.560,1.021,0.951,��,1.9,��
2017/02/01,02:30,1.066,1.806,1.170,2.045,1.419,0.558,1.021,0.949,��,3.8,��
2017/02/01,02:40,1.067,1.806,1.172,2.044,1.418,0.557,1.021,0.950,���k��,4.0,��
2017/02/01,02:50,1.067,1.806,1.170,2.039,1.418,0.558,1.023,0.950,���k��,4.1,��
2017/02/01,03:00,1.067,1.808,1.173,2.038,1.418,0.558,1.022,0.951,�k��,4.1,��
2017/02/01,03:10,1.066,1.807,1.171,2.040,1.418,0.557,1.022,0.949,�k��,4.0,��
2017/02/01,03:20,1.064,1.806,1.170,2.046,1.417,0.556,1.021,0.951,���k��,3.9,��
2017/02/01,03:30,1.068,1.806,1.171,2.042,1.420,0.559,1.022,0.951,��,3.6,��
2017/02/01,03:40,1.067,1.808,1.170,2.039,1.421,0.560,1.022,0.949,��,4.2,��
2017/02/01,03:50,1.070,1.808,1.168,2.043,1.420,0.557,1.022,0.951,��,3.2,��
2017/02/01,04:00,1.066,1.806,1.172,2.042,1.417,0.556,1.024,0.952,���k��,2.9,��
2017/02/01,04:10,1.067,1.809,1.171,2.044,1.419,0.559,1.022,0.949,�k��,2.3,��
2017/02/01,04:20,1.067,1.808,1.171,2.043,1.419,0.558,1.022,0.951,���k��,2.5,��
2017/02/01,04:30,1.067,1.809,1.172,2.046,1.418,0.558,1.021,0.952,��,3.2,��
2017/02/01,04:40,1.069,1.804,1.171,2.043,1.417,0.558,1.023,0.950,���k��,3.9,��
2017/02/01,04:50,1.066,1.804,1.172,2.047,1.418,0.557,1.024,0.950,���k��,7.3,��
2017/02/01,05:00,1.070,1.809,1.172,2.046,1.419,0.556,1.024,0.949,��,7.3,��
2017/02/01,05:10,1.067,1.810,1.171,2.045,1.421,0.557,1.025,0.951,��,5.5,��
2017/02/01,05:20,1.068,1.806,1.172,2.044,1.418,0.556,1.025,0.950,���k��,4.2,��
2017/02/01,05:30,1.066,1.811,1.169,2.046,1.420,0.559,1.025,0.952,���k��,7.4,��
2017/02/01,05:40,1.067,1.807,1.172,2.043,1.422,0.557,1.025,0.950,���k��,10.6,��
2017/02/01,05:50,1.068,1.807,1.170,2.044,1.422,0.558,1.025,0.951,���k��,8.1,��
2017/02/01,06:00,1.071,1.808,1.173,2.044,1.421,0.558,1.024,0.952,���k��,2.3,��
2017/02/01,06:10,1.069,1.807,1.174,2.045,1.419,0.557,1.023,0.952,�k��,1.4,��
2017/02/01,06:20,1.070,1.809,1.173,2.045,1.420,0.558,1.024,0.951,-,CALM,��
2017/02/01,06:30,1.070,1.805,1.175,2.042,1.415,0.559,1.025,0.951,���k��,1.2,��
2017/02/01,06:40,1.068,1.806,1.173,2.047,1.420,0.558,1.023,0.950,���k��,2.5,��
2017/02/01,06:50,1.069,1.807,1.170,2.045,1.418,0.557,1.023,0.950,�k�k��,1.5,��
2017/02/01,07:00,1.069,1.807,1.173,2.044,1.419,0.558,1.023,0.950,�k�k��,0.6,��
2017/02/01,07:10,1.069,1.809,1.172,2.042,1.419,0.559,1.022,0.951,��쓌,2.0,��
2017/02/01,07:20,1.070,1.809,1.170,2.045,1.422,0.559,1.024,0.950,���쐼,2.2,��
2017/02/01,07:30,1.070,1.807,1.171,2.043,1.418,0.557,1.023,0.951,���쐼,2.3,��
2017/02/01,07:40,1.067,1.805,1.169,2.044,1.416,0.558,1.022,0.951,��쐼,1.7,��
2017/02/01,07:50,1.068,1.804,1.167,2.042,1.418,0.559,1.024,0.951,��쐼,3.4,��
2017/02/01,08:00,1.068,1.805,1.167,2.044,1.416,0.559,1.023,0.952,�쐼,3.0,��
2017/02/01,08:10,1.068,1.800,1.170,2.045,1.418,0.559,1.024,0.952,�쐼,2.8,��
2017/02/01,08:20,1.066,1.804,1.173,2.044,1.417,0.559,1.023,0.949,���쐼,2.9,��
2017/02/01,08:30,1.070,1.807,1.172,2.047,1.418,0.557,1.022,0.951,���쐼,3.5,��
2017/02/01,08:40,1.068,1.805,1.173,2.048,1.421,0.559,1.022,0.951,��,3.2,��
2017/02/01,08:50,1.070,1.812,1.172,2.046,1.419,0.559,1.025,0.950,��,1.5,��
2017/02/01,09:00,1.070,1.805,1.173,2.046,1.419,0.560,1.025,0.950,���k��,1.1,��
2017/02/01,09:10,1.073,1.802,1.171,2.046,1.420,0.561,1.026,0.953,��쐼,1.7,��
2017/02/01,09:20,1.070,1.809,1.174,2.048,1.424,0.560,1.025,0.952,��,1.9,��
2017/02/01,09:30,1.070,1.809,1.174,2.050,1.420,0.560,1.024,0.951,-,CALM,��
2017/02/01,09:40,1.072,1.807,1.173,2.051,1.421,0.559,1.026,0.953,�쐼,0.8,��
2017/02/01,09:50,1.072,1.807,1.175,2.048,1.420,0.559,1.026,0.952,�쐼,0.6,��
2017/02/01,10:00,1.072,1.813,1.176,2.052,1.422,0.560,1.023,0.950,��쐼,0.6,��
2017/02/01,10:10,1.073,1.811,1.177,2.051,1.420,0.562,1.024,0.952,��쐼,1.2,��
2017/02/01,10:20,1.072,1.811,1.179,2.049,1.425,0.561,1.024,0.954,��쐼,2.0,��
2017/02/01,10:30,1.075,1.805,1.178,2.050,1.424,0.561,1.023,0.954,��,2.0,��
2017/02/01,10:40,1.075,1.808,1.179,2.049,1.425,0.562,1.025,0.954,��쓌,2.2,��
2017/02/01,10:50,1.075,1.804,1.178,2.053,1.424,0.563,1.026,0.952,��쓌,3.1,��
2017/02/01,11:00,1.077,1.814,1.179,2.052,1.428,0.562,1.025,0.952,��쓌,2.5,��
2017/02/01,11:10,1.074,1.816,1.178,2.052,1.428,0.559,1.025,0.953,��쓌,4.3,��
2017/02/01,11:20,1.076,1.810,1.180,2.049,1.427,0.561,1.024,0.954,��쓌,4.7,��
2017/02/01,11:30,1.075,1.813,1.178,2.052,1.425,0.559,1.023,0.953,��,5.1,��
2017/02/01,11:40,1.076,1.810,1.173,2.053,1.426,0.561,1.026,0.954,��쓌,5.0,��
2017/02/01,11:50,1.078,1.810,1.177,2.053,1.426,0.561,1.026,0.951,��쓌,5.2,��
2017/02/01,12:00,1.076,1.811,1.181,2.052,1.428,0.561,1.024,0.955,��쓌,6.1,��
2017/02/01,12:10,1.075,1.812,1.176,2.054,1.425,0.560,1.026,0.953,��쓌,5.7,��
2017/02/01,12:20,1.076,1.811,1.178,2.048,1.429,0.562,1.026,0.954,��쓌,5.7,��
2017/02/01,12:30,1.078,1.811,1.179,2.056,1.429,0.561,1.025,0.953,��쓌,6.3,��
2017/02/01,12:40,1.078,1.813,1.184,2.051,1.431,0.564,1.028,0.953,��쓌,6.7,��
2017/02/01,12:50,1.081,1.811,1.181,2.052,1.427,0.564,1.024,0.953,��쓌,7.2,��
2017/02/01,13:00,1.077,1.809,1.181,2.051,1.428,0.563,1.026,0.954,��쓌,7.4,��
2017/02/01,13:10,1.080,1.816,1.182,2.054,1.429,0.564,1.025,0.954,��,5.4,��
2017/02/01,13:20,1.079,1.815,1.182,2.058,1.429,0.563,1.026,0.954,��,5.7,��
2017/02/01,13:30,1.079,1.817,1.181,2.056,1.430,0.565,1.026,0.954,��쐼,6.8,��
2017/02/01,13:40,1.079,1.821,1.183,2.054,1.430,0.563,1.027,0.954,��,7.1,��
2017/02/01,13:50,1.080,1.821,1.183,2.056,1.430,0.565,1.026,0.954,��,7.3,��
2017/02/01,14:00,1.082,1.822,1.183,2.058,1.429,0.565,1.026,0.952,��,5.8,��
2017/02/01,14:10,1.081,1.821,1.180,2.054,1.429,0.565,1.027,0.952,��,6.2,��
2017/02/01,14:20,1.081,1.821,1.185,2.056,1.428,0.566,1.028,0.953,��쓌,7.8,��
2017/02/01,14:30,1.081,1.823,1.184,2.056,1.433,0.564,1.029,0.951,��쓌,8.4,��
2017/02/01,14:40,1.082,1.822,1.185,2.053,1.429,0.565,1.025,0.952,��쓌,8.1,��
2017/02/01,14:50,1.082,1.819,1.185,2.054,1.432,0.565,1.027,0.954,��쓌,8.8,��
2017/02/01,15:00,1.082,1.822,1.183,2.057,1.429,0.565,1.029,0.955,��쓌,8.9,��
2017/02/01,15:10,1.082,1.823,1.184,2.055,1.428,0.566,1.028,0.954,��,9.2,��
2017/02/01,15:20,1.082,1.823,1.184,2.054,1.432,0.566,1.028,0.955,��,8.4,��
2017/02/01,15:30,1.082,1.822,1.187,2.056,1.430,0.566,1.029,0.953,��,8.4,��
2017/02/01,15:40,1.082,1.820,1.185,2.055,1.431,0.566,1.030,0.955,��,8.0,��
2017/02/01,15:50,1.082,1.823,1.184,2.053,1.431,0.565,1.031,0.955,��,8.3,��
2017/02/01,16:00,1.080,1.823,1.187,2.056,1.432,0.566,1.032,0.955,��,7.7,��
2017/02/01,16:10,1.083,1.820,1.184,2.056,1.429,0.567,1.031,0.955,��,6.5,��
2017/02/01,16:20,1.083,1.822,1.183,2.053,1.431,0.567,1.030,0.954,��,7.3,��
2017/02/01,16:30,1.079,1.824,1.186,2.055,1.431,0.568,1.032,0.955,��,6.7,��
2017/02/01,16:40,1.078,1.823,1.183,2.056,1.431,0.567,1.031,0.954,��,5.8,��
2017/02/01,16:50,1.080,1.822,1.183,2.056,1.432,0.566,1.030,0.955,��쐼,7.2,��
2017/02/01,17:00,1.082,1.821,1.184,2.055,1.430,0.566,1.031,0.955,��쐼,6.6,��
2017/02/01,17:10,1.080,1.822,1.184,2.055,1.433,0.566,1.031,0.953,��쐼,5.5,��
2017/02/01,17:20,1.083,1.822,1.183,2.054,1.428,0.567,1.031,0.954,��쐼,6.6,��
2017/02/01,17:30,1.079,1.819,1.184,2.058,1.430,0.565,1.031,0.955,�쐼,4.5,��
2017/02/01,17:40,1.080,1.825,1.185,2.054,1.430,0.565,1.030,0.954,���쐼,3.6,��
2017/02/01,17:50,1.080,1.823,1.185,2.054,1.430,0.566,1.032,0.952,���쐼,5.7,��
2017/02/01,18:00,1.081,1.823,1.185,2.057,1.429,0.566,1.032,0.953,���쐼,8.7,��
2017/02/01,18:10,1.079,1.821,1.183,2.056,1.430,0.564,1.032,0.955,���쐼,8.7,��
2017/02/01,18:20,1.081,1.819,1.183,2.053,1.431,0.567,1.031,0.954,���쐼,11.7,��
2017/02/01,18:30,1.081,1.818,1.184,2.057,1.430,0.565,1.031,0.953,��,10.6,��
2017/02/01,18:40,1.080,1.820,1.183,2.055,1.429,0.565,1.031,0.955,��,9.7,��
2017/02/01,18:50,1.080,1.819,1.184,2.052,1.429,0.566,1.029,0.955,��,8.9,��
2017/02/01,19:00,1.079,1.821,1.184,2.056,1.429,0.566,1.030,0.955,��,8.7,��
2017/02/01,19:10,1.080,1.820,1.182,2.054,1.426,0.565,1.027,0.954,��,9.3,��
2017/02/01,19:20,1.080,1.823,1.182,2.053,1.431,0.566,1.029,0.955,�k��,11.1,�L
2017/02/01,19:30,1.078,1.819,1.181,2.054,1.432,0.566,1.029,0.955,�k��,11.6,��
2017/02/01,19:40,1.077,1.821,1.182,2.055,1.430,0.565,1.030,0.954,�k��,11.4,��
2017/02/01,19:50,1.079,1.820,1.184,2.055,1.432,0.565,1.030,0.954,�k��,9.5,��
2017/02/01,20:00,1.080,1.822,1.180,2.056,1.429,0.563,1.029,0.954,�k��,10.6,��
2017/02/01,20:10,1.078,1.817,1.180,2.055,1.430,0.563,1.029,0.955,�k��,14.1,��
2017/02/01,20:20,1.077,1.819,1.178,2.057,1.432,0.562,1.028,0.954,�k��,11.9,��
2017/02/01,20:30,1.076,1.816,1.180,2.056,1.428,0.563,1.031,0.954,�k��,12.7,��
2017/02/01,20:40,1.076,1.819,1.178,2.058,1.427,0.561,1.029,0.953,�k��,12.4,��
2017/02/01,20:50,1.076,1.819,1.178,2.055,1.432,0.559,1.029,0.953,�k��,9.9,��
2017/02/01,21:00,1.076,1.822,1.179,2.055,1.428,0.560,1.030,0.953,�k��,10.3,��
2017/02/01,21:10,1.073,1.819,1.182,2.056,1.428,0.560,1.027,0.953,�k��,10.4,��
2017/02/01,21:20,1.075,1.817,1.179,2.054,1.429,0.561,1.028,0.954,�k��,10.3,��
2017/02/01,21:30,1.072,1.820,1.178,2.053,1.430,0.561,1.028,0.955,�k��,12.7,��
2017/02/01,21:40,1.073,1.818,1.178,2.053,1.428,0.563,1.027,0.953,�k��,10.7,��
2017/02/01,21:50,1.075,1.818,1.179,2.053,1.430,0.560,1.028,0.954,�k��,12.4,��
2017/02/01,22:00,1.073,1.820,1.180,2.054,1.428,0.561,1.026,0.953,�k��,14.9,��
2017/02/01,22:10,1.073,1.818,1.176,2.055,1.427,0.559,1.027,0.954,�k��,12.0,��
2017/02/01,22:20,1.072,1.819,1.179,2.052,1.428,0.560,1.028,0.955,�k��,12.0,��
2017/02/01,22:30,1.073,1.821,1.180,2.053,1.424,0.561,1.027,0.953,�k��,9.3,��
2017/02/01,22:40,1.073,1.815,1.176,2.050,1.425,0.559,1.026,0.951,�k��,11.6,��
2017/02/01,22:50,1.073,1.815,1.175,2.048,1.424,0.558,1.024,0.952,�k��,9.8,��
2017/02/01,23:00,1.071,1.818,1.178,2.049,1.424,0.561,1.024,0.955,�k��,11.3,��
2017/02/01,23:10,1.069,1.818,1.178,2.052,1.424,0.558,1.025,0.953,�k��,11.9,��
2017/02/01,23:20,1.072,1.815,1.178,2.052,1.424,0.560,1.025,0.952,�k�k��,9.6,��
2017/02/01,23:30,1.070,1.817,1.176,2.055,1.427,0.559,1.026,0.955,�k��,10.3,��
2017/02/01,23:40,1.071,1.817,1.177,2.051,1.424,0.560,1.026,0.952,�k��,7.8,��
2017/02/01,23:50,1.070,1.817,1.178,2.054,1.425,0.559,1.025,0.953,�k�k��,7.2,��
